This is the latest recevied weather packets stored in our database for station/object S54A-11. If no packets are shown the sender has not sent any weather packets the latest 10 day(s).
| Time | Temp. | Humidity | Pressure | Rain* | Wind** | Luminosity | Snow |
|---|---|---|---|---|---|---|---|
| 1777834745 | 15.56° C | 30% | 1017.2 hPa | - | - | - | - |
| 1777833845 | 16.11° C | 29% | 1017.1 hPa | - | - | - | - |
| 1777832945 | 17.22° C | 29% | 1016.8 hPa | - | - | - | - |
| 1777832045 | 18.33° C | 28% | 1016.8 hPa | - | - | - | - |
| 1777831145 | 20° C | 27% | 1016.8 hPa | - | - | - | - |
| 1777830245 | 21.67° C | 25% | 1016.7 hPa | - | - | - | - |
| 1777829345 | 22.78° C | 25% | 1016.7 hPa | - | - | - | - |
| 1777828444 | 25.56° C | 25% | 1016.6 hPa | - | - | - | - |
| 1777827544 | 26.67° C | 26% | 1016.5 hPa | - | - | - | - |
| 1777826644 | 26.67° C | 25% | 1016.5 hPa | - | - | - | - |
| 1777825744 | 26.67° C | 24% | 1016.5 hPa | - | - | - | - |
| 1777824844 | 26.11° C | 24% | 1016.4 hPa | - | - | - | - |
| 1777823944 | 26.67° C | 24% | 1016.4 hPa | - | - | - | - |
| 1777823044 | 27.22° C | 24% | 1016.5 hPa | - | - | - | - |
| 1777822144 | 27.22° C | 24% | 1016.3 hPa | - | - | - | - |
| 1777821244 | 28.89° C | 24% | 1016.4 hPa | - | - | - | - |
| 1777820344 | 29.44° C | 23% | 1016.3 hPa | - | - | - | - |
| 1777819444 | 30° C | 23% | 1016.5 hPa | - | - | - | - |
| 1777818544 | 28.89° C | 23% | 1016.5 hPa | - | - | - | - |
| 1777817644 | 28.89° C | 23% | 1016.5 hPa | - | - | - | - |
| 1777816743 | 29.44° C | 23% | 1016.6 hPa | - | - | - | - |
| 1777815843 | 29.44° C | 24% | 1016.7 hPa | - | - | - | - |
| 1777814943 | 28.89° C | 24% | 1016.9 hPa | - | - | - | - |
| 1777814043 | 28.89° C | 23% | 1016.9 hPa | - | - | - | - |
| 1777813143 | 27.78° C | 24% | 1017.2 hPa | - | - | - | - |
* Rain since midnight (hover to see other rain measurements)
** Current wind speed in m/s (hover to see current wind gust speed)